This demonstration page uses our WeatherBlox Daily Observations layout. Learn more.

Left ArrowRight Arrow

Hourly Observations for January 9, 2017

Temp ( °F °C ) Dew Point ( °F °C ) Humidity (%) Winds ( mph kmh ) Pressure ( in mb ) Visibility ( mi km ) Precip ( " mm )
12:15 am 00:15 Cloudy 16 -9 7 -14 67 67 S 10 17 30.62 1037 10 16 N/A
12:35 am 00:35 Cloudy 18 -8 7 -14 62 62 S 10 17 30.56 1035 10 16 N/A
12:55 am 00:55 Cloudy 18 -8 7 -14 62 62 S 10 17 30.56 1035 10 16 N/A
1:15 am 01:15 Partly Cloudy 18 -8 9 -13 68 68 S 12 19 30.56 1035 10 16 N/A
1:35 am 01:35 Partly Cloudy 18 -8 9 -13 68 68 S 12 19 30.59 1036 10 16 N/A
1:55 am 01:55 Partly Cloudy 18 -8 9 -13 68 68 S 8 13 30.59 1036 10 16 N/A
2:15 am 02:15 Mostly Cloudy 18 -8 9 -13 68 68 S 12 19 30.56 1035 10 16 N/A
2:35 am 02:35 Mostly Cloudy 18 -8 9 -13 68 68 S 10 17 30.56 1035 10 16 N/A
2:55 am 02:55 Cloudy 18 -8 9 -13 68 68 S 15 24 30.53 1034 10 16 N/A
3:15 am 03:15 Cloudy 18 -8 9 -13 68 68 S 13 20 30.50 1033 10 16 N/A
3:35 am 03:35 Cloudy 18 -8 9 -13 68 68 S 13 20 30.50 1033 10 16 N/A
3:55 am 03:55 Cloudy 19 -7 10 -12 68 68 S 12 19 30.53 1034 10 16 N/A
4:15 am 04:15 Cloudy 19 -7 10 -12 68 68 S 12 19 30.50 1033 10 16 N/A
4:35 am 04:35 Cloudy 19 -7 10 -12 68 68 S 10 17 30.50 1033 10 16 N/A
4:55 am 04:55 Cloudy 19 -7 10 -12 68 68 S 13 20 30.50 1033 10 16 N/A
5:35 am 05:35 Cloudy 19 -7 10 -12 68 68 S 12 19 30.48 1032 10 16 N/A
5:55 am 05:55 Cloudy 19 -7 10 -12 68 68 S 10 17 30.48 1032 10 16 N/A
6:15 am 06:15 Cloudy 19 -7 10 -12 68 68 S 12 19 30.48 1032 10 16 N/A
6:35 am 06:35 Cloudy 19 -7 10 -12 68 68 S 10 17 30.48 1032 10 16 N/A
6:55 am 06:55 Cloudy 19 -7 10 -12 68 68 S 12 19 30.48 1032 10 16 N/A
7:15 am 07:15 Cloudy 19 -7 12 -11 73 73 S 12 19 30.45 1031 10 16 N/A
7:35 am 07:35 Mostly Cloudy 19 -7 10 -12 68 68 S 12 19 30.45 1031 10 16 N/A
7:55 am 07:55 Clear 18 -8 10 -12 73 73 S 10 17 30.45 1031 10 16 N/A
8:15 am 08:15 Sunny 18 -8 10 -12 73 73 S 10 17 30.48 1032 10 16 N/A
8:35 am 08:35 Sunny 18 -8 10 -12 73 73 S 9 15 30.48 1032 10 16 N/A
8:55 am 08:55 Sunny 19 -7 10 -12 68 68 S 9 15 30.48 1032 10 16 N/A
9:15 am 09:15 Sunny 19 -7 12 -11 73 73 S 9 15 30.48 1032 10 16 N/A
9:35 am 09:35 Sunny 21 -6 12 -11 68 68 S 10 17 30.48 1032 10 16 N/A
9:55 am 09:55 Sunny 21 -6 12 -11 68 68 SSW 12 19 30.48 1032 10 16 N/A
10:15 am 10:15 Sunny 21 -6 12 -11 68 68 S 13 20 30.48 1032 10 16 N/A
10:35 am 10:35 Sunny 23 -5 12 -11 63 63 S 10 17 30.48 1032 10 16 N/A
10:55 am 10:55 Sunny 25 -4 14 -10 63 63 SSW 12 19 30.45 1031 10 16 N/A
11:15 am 11:15 Sunny 25 -4 14 -10 63 63 SSW 16 26 30.45 1031 10 16 N/A
11:35 am 11:35 Sunny 27 -3 14 -10 59 59 SSW 15 24 30.45 1031 10 16 N/A
11:55 am 11:55 Sunny 27 -3 16 -9 64 64 SSW 14 22 30.42 1030 10 16 N/A
12:15 pm 12:15 Sunny 27 -3 16 -9 64 64 SSW 13 20 30.42 1030 10 16 N/A
12:35 pm 12:35 Sunny 27 -3 16 -9 64 64 SSW 13 20 30.42 1030 10 16 N/A
12:55 pm 12:55 Sunny 28 -2 16 -9 59 59 SSW 15 24 30.39 1029 10 16 N/A
1:15 pm 13:15 Sunny 28 -2 16 -9 59 59 SSW 15 24 30.36 1028 10 16 N/A
1:35 pm 13:35 Sunny 28 -2 16 -9 59 59 SW 14 22 30.36 1028 10 16 N/A
1:55 pm 13:55 Sunny 28 -2 18 -8 64 64 SW 10 17 30.39 1029 10 16 N/A
2:15 pm 14:15 Sunny 28 -2 16 -9 59 59 SSW 9 15 30.36 1028 10 16 N/A
2:35 pm 14:35 Sunny 30 -1 18 -8 59 59 SSW 9 15 30.36 1028 10 16 N/A
2:55 pm 14:55 Sunny 30 -1 18 -8 59 59 SSW 9 15 30.36 1028 10 16 N/A
3:15 pm 15:15 Sunny 30 -1 19 -7 64 64 SSW 9 15 30.36 1028 10 16 N/A
3:35 pm 15:35 Sunny 32 undefined 19 -7 60 60 S 9 15 30.33 1027 10 16 N/A
3:55 pm 15:55 Sunny 30 -1 19 -7 64 64 S 10 17 30.33 1027 10 16 N/A
4:15 pm 16:15 Sunny 32 undefined 19 -7 60 60 S 10 17 30.33 1027 10 16 N/A
4:35 pm 16:35 Sunny 32 undefined 19 -7 60 60 S 10 17 30.33 1027 10 16 N/A
4:55 pm 16:55 Mostly Cloudy 32 undefined 19 -7 60 60 S 8 13 30.33 1027 10 16 N/A
5:15 pm 17:15 Mostly Cloudy 32 undefined 21 -6 64 64 S 9 15 30.33 1027 10 16 N/A
5:35 pm 17:35 Cloudy 32 undefined 21 -6 64 64 S 9 15 30.33 1027 10 16 N/A
5:55 pm 17:55 Cloudy 30 -1 21 -6 69 69 S 9 15 30.33 1027 10 16 N/A
6:15 pm 18:15 Cloudy 30 -1 21 -6 69 69 S 10 17 30.33 1027 10 16 N/A
6:35 pm 18:35 Cloudy 30 -1 21 -6 69 69 S 10 17 30.33 1027 10 16 N/A
6:55 pm 18:55 Cloudy 32 undefined 21 -6 64 64 S 12 19 30.33 1027 10 16 N/A
7:15 pm 19:15 Cloudy 32 undefined 21 -6 64 64 S 12 19 30.33 1027 10 16 N/A
7:35 pm 19:35 Partly Cloudy 32 undefined 21 -6 64 64 S 14 22 30.30 1026 10 16 N/A
7:55 pm 19:55 Partly Cloudy 30 -1 21 -6 69 69 S 14 22 30.30 1026 10 16 N/A
8:15 pm 20:15 Partly Cloudy 30 -1 21 -6 69 69 S 14 22 30.27 1025 10 16 N/A
8:35 pm 20:35 Partly Cloudy 32 undefined 21 -6 64 64 S 15 24 30.27 1025 10 16 N/A
8:55 pm 20:55 Partly Cloudy 32 undefined 21 -6 64 64 S 14 22 30.27 1025 10 16 N/A
9:15 pm 21:15 Clear 32 undefined 21 -6 64 64 S 13 20 30.24 1024 10 16 N/A
9:35 pm 21:35 Partly Cloudy 32 undefined 21 -6 64 64 S 16 26 30.24 1024 10 16 N/A
9:55 pm 21:55 Mostly Cloudy 32 undefined 21 -6 64 64 S 15 24 30.24 1024 10 16 N/A
10:15 pm 22:15 Cloudy 32 undefined 21 -6 64 64 S 15 24 30.24 1024 10 16 N/A
10:35 pm 22:35 Cloudy 32 undefined 21 -6 64 64 S 14 22 30.24 1024 10 16 N/A
10:55 pm 22:55 Cloudy 32 undefined 21 -6 64 64 SSE 14 22 30.24 1024 10 16 N/A
11:15 pm 23:15 Cloudy 32 undefined 21 -6 64 64 SSE 20 31 30.21 1023 10 16 N/A
11:35 pm 23:35 Cloudy 34 1 21 -6 60 60 SSE 16 26 30.21 1023 10 16 N/A
11:55 pm 23:55 Cloudy 34 1 21 -6 60 60 S 16 26 30.21 1023 10 16 N/A

Powered by AerisWeather